Location: Days
(41.3591°N, 106.7339°W)
Time: 19:56:19
(UTC+00:00)

RS-15 - Pass Details

Date: 08 July 2022
Orbit: 1881 x 2163 km, 64.8° (Epoch: 15 August)

Event Time Altitude Azimuth Distance (km) Brightness Sun altitude
Rises 08:32:46 0° 314° (NW) 5,679 10.8 -23.5°
Reaches altitude 10° 08:39:10 10° 290° (WNW) 4,635 10.0 -23.1°
Maximum altitude 08:43:40 13° 267° (W) 4,354 9.6 -22.7°
Enters shadow 08:46:53 11° 250° (WSW) 4,450 9.5 -22.5°
